Flag for Ukraine Weather past 2 weeks in Kyiv, Ukraine

Now
32 °F

Ice fog.


Feels Like: 32 °F
Forecast: 36 / 44 °F
Wind: No wind

Location: Kyiv

Current Time: Mar 1, 2015 at 6:10:32 AM

Latest Report: Mar 1, 2015 at 5:30 AM


Visibility: 2 mi

Pressure: 30.09 "Hg

Humidity: 100%

Dew point: 32 °F

Location of KyivLocation

Historic Weather in Kyiv — Graph

°F

Kyiv temperature yesterday

Maximum temperature yesterday: 45 °F (at 3:00 PM)
Minimum temperature yesterday: 36 °F (at 6:30 AM)
Average temperature yesterday: 39 °F

Past Weeks' High & Low Weather Summary

 TemperatureHumidityPressure
High46 °F (Feb 24, 2:00 PM)100% (Feb 14, 5:30 AM)30.77 "Hg (Feb 14, 5:30 AM)
Low3 °F (Feb 18, 5:30 AM)31% (Feb 18, 1:30 PM)29.86 "Hg (Feb 24, 3:30 AM)
Average32 °F82%30.18 "Hg
* Reported Feb 14 4:00 AM — Mar 1 4:30 AM, Kyiv, Weather by CustomWeather, © 2015

Note: Actual official high and low records may vary slightly from our data, if they occured in-between our weather recording intervals... More about our weather records

Advertising

Kyiv weather history for previous 24 hours

 ConditionsComfort  
Time TempWeatherWind HumidityBarometerVisibility
4:30 AM
Sun, Mar 1
32 °FIce fog.No wind93%30.09 "Hg1 mi
4:00 AM36 °FFog.1 mph93%30.09 "Hg3 mi
3:30 AM36 °FFog.No wind93%30.09 "Hg3 mi
3:00 AM37 °FFog.1 mph93%30.09 "Hg3 mi
2:30 AM37 °FFog.No wind93%30.09 "Hg3 mi
2:00 AM37 °FFog.No wind93%30.09 "Hg2 mi
1:30 AM37 °FFog.No wind93%30.09 "Hg2 mi
1:00 AM37 °FFog.No wind93%30.09 "Hg3 mi
12:30 AM39 °FLight rain. Overcast.No wind87%30.12 "Hg4 mi
12:00 AM39 °FOvercast.1 mph87%30.12 "Hg4 mi
11:30 PM
Sat, Feb 28
39 °FOvercast.No wind87%30.09 "Hg5 mi
10:30 PM39 °FPassing clouds.1 mph87%30.12 "Hg6 mi
10:00 PM39 °FPassing clouds.1 mph87%30.12 "Hg6 mi
9:30 PM39 °FPassing clouds.1 mph87%30.09 "Hg6 mi
9:00 PM39 °FPassing clouds.1 mph87%30.09 "HgN/A
8:30 PM39 °FPassing clouds.1 mph87%30.09 "HgN/A
8:00 PM39 °FPassing clouds.3 mph87%30.09 "Hg4 mi
7:30 PM37 °FPassing clouds.1 mph93%30.09 "Hg3 mi
7:00 PM36 °FPassing clouds.No wind93%30.09 "Hg3 mi
6:30 PM39 °FPassing clouds.1 mph81%30.09 "Hg3 mi
6:00 PM37 °FPassing clouds.1 mph87%30.09 "Hg6 mi
5:30 PM41 °FScattered clouds.3 mph76%30.07 "HgN/A
5:00 PM41 °FScattered clouds.3 mph76%30.07 "HgN/A
4:30 PM43 °FPartly sunny.3 mph76%30.07 "HgN/A
4:00 PM45 °FPartly sunny.3 mph71%30.07 "HgN/A
3:30 PM45 °FPartly sunny.3 mph66%30.07 "HgN/A
3:00 PM45 °FPartly sunny.3 mph71%30.07 "HgN/A
2:30 PM43 °FOvercast.3 mph76%30.07 "HgN/A
2:00 PM43 °FOvercast.3 mph81%30.07 "HgN/A
1:30 PM41 °FMore clouds than sun.1 mph81%30.07 "HgN/A
1:00 PM41 °FMostly cloudy.1 mph81%30.07 "HgN/A
12:30 PM41 °FMostly cloudy.1 mph81%30.07 "HgN/A
12:00 PM39 °FOvercast.3 mph87%30.09 "HgN/A
11:30 AM39 °FMore clouds than sun.3 mph87%30.09 "HgN/A
11:00 AM39 °FMore clouds than sun.3 mph87%30.07 "HgN/A
10:30 AM39 °FOvercast.3 mph87%30.07 "HgN/A
10:00 AM37 °FOvercast.1 mph93%30.07 "HgN/A
9:30 AM37 °FOvercast.3 mph93%30.07 "HgN/A
9:00 AM37 °FOvercast.3 mph93%30.07 "HgN/A
8:30 AM37 °FOvercast.No wind93%30.07 "Hg6 mi
8:00 AM37 °FOvercast.No wind87%30.07 "Hg5 mi
7:30 AM37 °FOvercast.No wind87%30.04 "HgN/A
7:00 AM37 °FOvercast.1 mph87%30.04 "HgN/A
6:30 AM36 °FOvercast.No wind93%30.04 "Hg6 mi
6:00 AM37 °FOvercast.No wind87%30.04 "HgN/A
Weather by CustomWeather, © 2015

See weather overviewHow to use our weather pages